| time (UTC) | temp F | wind direction | speed MPH | gust MPH | rain 1hr in | rain 24hr in | rain mn in | humidity % | barometer mb |
| 20260505140114 | 46 | 34 | 5.0 | 8.0 | 0.00 | 0.01 | 0.01 | 85 | 1007.1 |
| 20260505124548 | 45 | 47 | 2.0 | 8.0 | 0.01 | 0.01 | 0.01 | 84 | 1007.8 |
| 20260505123051 | 45 | 325 | 14.0 | 23.0 | 0.00 | 0.00 | 0.00 | 82 | 1008.2 |
| 20260505121544 | 45 | 360 | 14.0 | 30.0 | 0.00 | 0.00 | 0.00 | 81 | 1007.6 |
| 20260505120047 | 47 | 360 | 19.0 | 30.0 | 0.00 | 0.00 | 0.00 | 73 | 1007.4 |
| 20260505114544 | 49 | 360 | 21.0 | 33.0 | 0.00 | 0.00 | 0.00 | 69 | 1007.1 |
| 20260505113032 | 50 | 308 | 21.0 | 32.0 | 0.00 | 0.00 | 0.00 | 66 | 1007.3 |
| 20260505111529 | 50 | 360 | 11.0 | 19.0 | 0.00 | 0.00 | 0.00 | 73 | 1007.1 |
| 20260505101538 | 50 | 360 | 5.0 | 17.0 | 0.00 | 0.00 | 0.00 | 74 | 1007.2 |
| 20260505100021 | 50 | 327 | 9.0 | 17.0 | 0.00 | 0.00 | 0.00 | 73 | 1007.7 |
| 20260505094531 | 51 | 360 | 9.0 | 18.0 | 0.00 | 0.00 | 0.00 | 72 | 1007.2 |
| 20260505093018 | 50 | 360 | 7.0 | 14.0 | 0.00 | 0.00 | 0.00 | 73 | 1007.2 |
| 20260505091515 | 50 | 333 | 6.0 | 11.0 | 0.00 | 0.00 | 0.00 | 73 | 1007.2 |
| 20260505090019 | 49 | 360 | 5.0 | 8.0 | 0.00 | 0.00 | 0.00 | 74 | 1007.1 |
| 20260505084513 | 50 | 355 | 6.0 | 10.0 | 0.00 | 0.00 | 0.00 | 74 | 1007.5 |
| 20260505083017 | 50 | 360 | 6.0 | 8.0 | 0.00 | 0.00 | 0.00 | 74 | 1007.7 |
| 20260505081510 | 50 | 355 | 6.0 | 10.0 | 0.00 | 0.00 | 0.00 | 73 | 1008.0 |
| 20260505080008 | 50 | 350 | 6.0 | 10.0 | 0.00 | 0.00 | 0.00 | 73 | 1008.2 |
| 20260505074504 | 50 | 348 | 4.0 | 6.0 | 0.00 | 0.00 | 0.00 | 71 | 1008.2 |
| 20260505073002 | 50 | 53 | 2.0 | 6.0 | 0.00 | 0.00 | 0.00 | 70 | 1008.2 |
| 20260505071506 | 50 | 50 | 1.0 | 5.0 | 0.00 | 0.00 | 0.00 | 69 | 1008.0 |
| 20260505070104 | 50 | 32 | 5.0 | 9.0 | 0.00 | 0.00 | 0.00 | 70 | 1008.2 |
| 20260505064557 | 51 | 23 | 5.0 | 8.0 | 0.00 | 0.00 | 0.00 | 68 | 1008.4 |
| 20260505063055 | 51 | 333 | 3.0 | 8.0 | 0.00 | 0.00 | 0.00 | 66 | 1008.0 |
| 20260505061554 | 52 | 9 | 5.0 | 9.0 | 0.00 | 0.00 | 0.00 | 65 | 1007.3 |
| 20260505060053 | 52 | 5 | 7.0 | 12.0 | 0.00 | 0.00 | 0.00 | 65 | 1007.9 |
| 20260505054551 | 52 | 16 | 8.0 | 14.0 | 0.00 | 0.00 | 0.00 | 64 | 1008.5 |
| 20260505053049 | 52 | 32 | 5.0 | 11.0 | 0.00 | 0.00 | 0.00 | 64 | 1008.8 |
| 20260505051559 | 52 | 24 | 8.0 | 14.0 | 0.00 | 0.00 | 0.00 | 63 | 1008.6 |
| 20260505041523 | 54 | 350 | 12.0 | 18.0 | 0.00 | 0.00 | 0.00 | 59 | 1008.7 |
| 20260505040016 | 54 | 5 | 12.0 | 19.0 | 0.00 | 0.00 | 0.00 | 56 | 1008.7 |
| 20260505034513 | 55 | 5 | 11.0 | 19.0 | 0.00 | 0.00 | 0.00 | 54 | 1008.6 |
| 20260505033014 | 56 | 346 | 14.0 | 23.0 | 0.00 | 0.00 | 0.00 | 51 | 1008.5 |
| 20260505031513 | 56 | 355 | 12.0 | 28.0 | 0.00 | 0.00 | 0.00 | 49 | 1008.2 |
| 20260505030011 | 57 | 360 | 15.0 | 24.0 | 0.00 | 0.00 | 0.00 | 46 | 1007.9 |
| 20260505024512 | 57 | 10 | 19.0 | 28.0 | 0.00 | 0.00 | 0.00 | 44 | 1007.8 |
| 20260505023017 | 60 | 20 | 17.0 | 24.0 | 0.00 | 0.00 | 0.00 | 37 | 1007.7 |
| 20260505021513 | 62 | 336 | 16.0 | 24.0 | 0.00 | 0.00 | 0.00 | 31 | 1007.4 |
| 20260505020007 | 63 | 360 | 12.0 | 23.0 | 0.00 | 0.00 | 0.00 | 29 | 1007.2 |
| 20260505014512 | 63 | 315 | 18.0 | 27.0 | 0.00 | 0.00 | 0.00 | 28 | 1007.1 |
| 20260505013005 | 64 | 360 | 18.0 | 29.0 | 0.00 | 0.00 | 0.00 | 27 | 1006.9 |
| 20260505011506 | 65 | 360 | 17.0 | 27.0 | 0.00 | 0.00 | 0.00 | 25 | 1006.6 |
| 20260505010005 | 66 | 360 | 18.0 | 29.0 | 0.00 | 0.00 | 0.00 | 23 | 1006.5 |
| 20260505004503 | 67 | 360 | 17.0 | 26.0 | 0.00 | 0.00 | 0.00 | 22 | 1006.2 |
| 20260505003004 | 68 | 304 | 20.0 | 29.0 | 0.00 | 0.00 | 0.00 | 19 | 1006.2 |
| 20260505001504 | 68 | 315 | 20.0 | 30.0 | 0.00 | 0.00 | 0.00 | 19 | 1006.2 |
| 20260505000002 | 68 | 360 | 20.0 | 32.0 | 0.00 | 0.00 | 0.00 | 19 | 1006.6 |
| 20260504234502 | 69 | 360 | 19.0 | 30.0 | 0.00 | 0.00 | 0.00 | 19 | 1006.7 |
| 20260504233005 | 69 | 360 | 18.0 | 30.0 | 0.00 | 0.00 | 0.00 | 18 | 1006.7 |
| 20260504231501 | 70 | 360 | 19.0 | 30.0 | 0.00 | 0.00 | 0.00 | 18 | 1006.8 |
| 20260504230106 | 70 | 309 | 15.0 | 26.0 | 0.00 | 0.00 | 0.00 | 19 | 1006.8 |
| 20260504224559 | 71 | 360 | 22.0 | 29.0 | 0.00 | 0.00 | 0.00 | 19 | 1006.9 |
| 20260504223103 | 71 | 323 | 15.0 | 32.0 | 0.00 | 0.00 | 0.00 | 19 | 1006.9 |
| 20260504221603 | 71 | 360 | 17.0 | 30.0 | 0.00 | 0.00 | 0.00 | 19 | 1006.8 |
| 20260504220058 | 72 | 360 | 15.0 | 28.0 | 0.00 | 0.00 | 0.00 | 18 | 1007.4 |
| 20260504214612 | 71 | 360 | 17.0 | 27.0 | 0.00 | 0.00 | 0.00 | 18 | 1007.5 |
| 20260504213109 | 71 | 360 | 16.0 | 25.0 | 0.00 | 0.00 | 0.00 | 20 | 1007.8 |
| 20260504211556 | 70 | 360 | 19.0 | 27.0 | 0.00 | 0.00 | 0.00 | 21 | 1008.1 |
| 20260504210057 | 71 | 360 | 19.0 | 31.0 | 0.00 | 0.00 | 0.00 | 21 | 1008.3 |
| 20260504204553 | 71 | 360 | 17.0 | 27.0 | 0.00 | 0.00 | 0.00 | 20 | 1008.4 |
| 20260504203053 | 71 | 360 | 16.0 | 24.0 | 0.00 | 0.00 | 0.00 | 19 | 1008.6 |
| 20260504201601 | 70 | 360 | 17.0 | 27.0 | 0.00 | 0.00 | 0.00 | 20 | 1008.6 |
| 20260504200048 | 70 | 360 | 18.0 | 27.0 | 0.00 | 0.00 | 0.00 | 20 | 1008.5 |
| 20260504194551 | 70 | 360 | 17.0 | 24.0 | 0.00 | 0.00 | 0.00 | 20 | 1008.7 |
| 20260504193045 | 70 | 355 | 14.0 | 22.0 | 0.00 | 0.00 | 0.00 | 20 | 1008.7 |
| 20260504191555 | 69 | 360 | 18.0 | 28.0 | 0.00 | 0.00 | 0.00 | 19 | 1008.9 |
| 20260504190047 | 70 | 360 | 19.0 | 29.0 | 0.00 | 0.00 | 0.00 | 19 | 1009.3 |
| 20260504184555 | 69 | 360 | 14.0 | 25.0 | 0.00 | 0.00 | 0.00 | 20 | 1009.4 |
| 20260504183042 | 69 | 302 | 19.0 | 30.0 | 0.00 | 0.00 | 0.00 | 20 | 1009.2 |
| 20260504181539 | 68 | 360 | 13.0 | 24.0 | 0.00 | 0.00 | 0.00 | 23 | 1009.3 |
| 20260504180134 | 67 | 288 | 15.0 | 22.0 | 0.00 | 0.00 | 0.00 | 24 | 1009.3 |
| 20260504174536 | 66 | 360 | 12.0 | 19.0 | 0.00 | 0.00 | 0.00 | 27 | 1009.9 |
| 20260504173031 | 65 | 360 | 10.0 | 21.0 | 0.00 | 0.00 | 0.00 | 29 | 1010.2 |
| 20260504171532 | 65 | 360 | 11.0 | 19.0 | 0.00 | 0.00 | 0.00 | 29 | 1010.2 |